Retour au catalogue

THORAD AGENA D DEB

ActifPO
NORAD 4971·DEBRIS·🇺🇸 United States

Lancé Apr 8, 1970 depuis Vandenberg Space Force Base

Loading…

Prochains Passages

TLE

Source: Space-Track
1 04971U 70025GR  26230.24863564  .00000733  00000-0  24539-2 0  9994
2 04971  99.9286 147.0179 0342696  52.6519  98.2094 12.84820362635656

Suivez THORAD AGENA D DEB en temps réel avec AllMySat

Download on the App Store